Location: Newark
(42.8481°N, 0.4872°E)
Time: 08:32:11
(UTC+00:00)

SR - Pass Details

Date: 02 November 2020
Orbit: 579 x 876 km, 66.7° (Epoch: 29 November)

Event Time Altitude Azimuth Distance (km) Brightness Sun altitude
Rises 10:22:04 0° 322° (NW) 3,109 ? 29.4°
Reaches altitude 10° 10:24:25 10° 316° (NW) 2,233 ? 29.5°
Maximum altitude 10:29:15 44° 246° (WSW) 1,070 ? 29.8°
Drops below altitude 10° 10:34:27 10° 176° (S) 2,400 ? 30.2°
Sets 10:37:04 0° 170° (S) 3,367 ? 30.3°
